Regional Weather Roundup
Issued by NWS

Home | Current Version | Previous Version | Graphics & Text | Print | Product List | Glossary On
Versions: 1 2 3 4 5 6 7 8 9 10 11 12 13 14 15 16 17 18 19 20 21 22 23 24 25 26 27 28 29 30 31 32 33 34 35 36 37 38 39 40 41 42 43 44 45 46 47 48 49 50
000
ASUS43 KTOP 041059
RWRKS

WEATHER ROUNDUP FOR KANSAS
NATIONAL WEATHER SERVICE GOODLAND KS
600 AM CDT MON MAY 04 2015

NOTE:  "FAIR" INDICATES FEW OR NO CLOUDS BELOW 12,000 FEET WITH NO
SIGNIFICANT WEATHER AND/OR OBSTRUCTIONS TO VISIBILITY.

KSZ001>006-013>018-027>032-041>047-041200-
NORTHWEST KANSAS

CITY           SKY/WX    TMP DP  RH WIND       PRES   REMARKS
GOODLAND       LGT RAIN  51  46  83 NE7       30.04R
HAYS           CLOUDY    61  45  55 NW5       29.98S
HILL CITY      CLOUDY    58  46  64 NE9       29.98S
RUSSELL        CLOUDY    60  50  69 N6        29.94S
$$

KSZ061>065-074>080-084>089-041200-
SOUTHWEST KANSAS

CITY           SKY/WX    TMP DP  RH WIND       PRES   REMARKS
DODGE CITY     CLOUDY    60  55  83 N5        29.93F
ELKHART          N/A     57  49  75 SW5         N/A
GARDEN CITY    CLOUDY    57  54  89 N8        29.95S
GREAT BEND     CLOUDY    64  52  63 N16G22    29.92F
LIBERAL        CLOUDY    61  54  77 NW7       29.94S
$$

KSZ066>073-081>083-090>101-041200-
SOUTHEAST KANSAS

CITY           SKY/WX    TMP DP  RH WIND       PRES   REMARKS
CHANUTE        MOCLDY    62  56  80 S9        30.00R
COFFEYVILLE    MOCLDY    63  56  78 S7        30.00R
HUTCHINSON     CLOUDY    60  55  83 SE3       29.94S
MEDICINE LODGE   N/A     63  59  87 S7        29.94R
NEWTON         MOCLDY    61  52  72 S6        29.98R
PARSONS        PTCLDY    62  57  83 CALM      30.02R
WICHITA INTL   MOCLDY    59  53  80 S3        29.97R
WICHITA JABRA  MOCLDY    61  54  77 S8        29.97R
WICHITA MCCONL PTCLDY    60  54  81 S10       29.97S
WINFIELD       PTCLDY    61  55  81 E5        30.00R
$$

KSZ007>012-019>026-033>040-048>060-102>105-041200-
NORTHEAST KANSAS

CITY           SKY/WX    TMP DP  RH WIND       PRES   REMARKS
CONCORDIA      CLOUDY    61  55  81 CALM      29.90R
EMPORIA        CLOUDY    62  55  77 S14       29.94S
LAWRENCE       CLOUDY    62  54  74 CALM      29.98R
MANHATTAN      CLOUDY    64  56  75 SW8       29.93R
OLATHE IND     CLOUDY    66  56  70 S10       29.98R
OLATHE EXE     CLOUDY    64  56  75 N6        29.98R
SALINA         CLOUDY    66  54  65 W10       29.93S
TOPEKA BILLARD MOCLDY    65  55  70 S5        29.96S
TOPEKA FORBES  MOCLDY    64  54  69 S3        29.97R
$$


USA.gov is the U.S. government's official web portal to all federal, state and local government web resources and services.